Location: Arbon
(43.0005°N, 0.7472°E)
Time: 02:41:37
(UTC+00:00)

Cosmos 2034 Rocket - Pass Details

Date: 07 August 2020
Orbit: 958 x 1001 km, 82.9° (Epoch: 27 September)

Event Time Altitude Azimuth Distance (km) Brightness Sun altitude
Exits shadow 00:35:50 68° 90° (E) 1,050 4.0 -30.2°
Drops below altitude 10° 00:42:02 10° 13° (NNE) 2,752 7.3 -30.0°
Sets 00:44:35 0° 11° (N) 3,711 8.2 -29.9°
